Vertical_Velocity
4 6 6 9 13 -4 -19 5 -3 -7 -1 -1 -3 -1 -0 -4 -7 -4 -3 -1 -1 0 -3 -2 0 3 3 7 3 5 -5 -2 -3 0 2 -2 -2 -1 -2 2 -1 -1 -2
9 7 5 8 -8 -13 -5 -4 -3 1 2 -4 -2 -5 -1 -0 -2 -1 -2 -3 -2 -3 -2 -3 -3 -1 -1 -1 -3 1 4 0 0 -3 -1 -3 -0 -1 -4 -7 -3 2 1
4 -1 -7 -6 -5 3 1 -8 0 2 -1 -1 -3 -0 2 -2 -3 -0 1 3 1 -3 -2 -1 -1 0 0 -0 -1 1 0 1 1 -2 -6 -3 -6 -0 -8 -1 -3 -4 1
-4 -3 -3 1 -1 -1 -4 1 3 -2 -4 0 2 2 -3 -2 0 1 1 -1 -4 -2 -1 2 2 1 3 -1 -1 0 1 -2 -0 -3 -4 -6 -0 -2 -2 -4 -8 -3 -8
0 1 -1 -0 0 -1 -3 1 -0 -6 -8 -1 -6 1 1 -1 2 2 0 0 0 0 3 1 -1 2 1 -1 2 1 0 -1 -2 -3 -2 -3 -2 -4 -1 -1 -2 -1 -10
1 -1 3 3 5 2 -4 -11 -8 -1 -3 0 2 -2 -0 0 3 1 -0 0 -1 -1 -3 -0 -5 -2 2 2 2 1 -0 -3 -1 -3 -2 -1 1 -1 -1 -3 -1 -4 -17
3 3 3 4 -3 -7 -18 -4 1 0 -1 -1 -1 1 1 0 1 -1 1 -2 -2 0 -1 -0 1 3 2 3 2 0 -0 1 2 -1 -0 2 -3 1 2 -4 -1 4 -1
5 4 1 -5 -3 -15 -2 -2 -1 -1 -2 -1 -2 -2 0 -0 -1 2 0 -0 1 2 1 -0 -1 -0 2 3 1 0 2 2 -0 -1 -2 -2 -1 -1 1 2 3 1 -2
1 -1 -1 -7 -3 -4 -1 -0 -1 -2 -2 -3 -3 -1 -3 -3 -1 0 -1 -2 0 2 -0 -1 -0 1 2 2 1 -0 -2 1 -1 0 0 0 0 1 2 1 -3 -1 -6
-3 -0 -15 2 -3 -3 -1 -1 0 -0 -1 -1 0 -2 -0 1 3 -1 -1 0 -3 -0 2 -0 1 0 -0 0 -1 -0 -1 0 -1 1 3 2 1 -0 0 2 1 1 0
-8 -1 -0 -3 -1 0 -1 2 -1 -1 -1 -1 -2 1 1 2 1 -1 1 1 -3 -1 -1 -1 2 -0 -1 -0 1 0 -0 -0 1 -2 -0 1 1 -0 -0 1 3 3 -1
1 -2 -1 -1 -2 -2 -2 -2 -2 -1 1 1 -2 1 2 1 1 3 -1 0 0 -1 -2 -1 2 0 -1 -0 -0 -1 0 -0 -2 -0 0 -0 -2 -1 -1 -1 -1 0 4
-3 -3 -3 -2 -0 -1 -4 -3 -4 -3 -4 -4 -3 -3 -1 2 -1 2 1 1 2 -2 -1 1 2 2 -0 -3 1 -0 -0 -0 -0 -1 -0 -2 -2 -0 0 -1 0 2 0
-3 -2 -2 -4 -2 -3 -0 -0 -1 -1 -2 -1 -4 -5 -4 -2 -2 0 -1 4 4 1 0 0 1 4 2 0 -0 2 -0 -0 1 -1 -2 -2 -2 -0 -0 -1 -2 -3 -4
-2 -3 -2 -1 -1 -1 -0 2 0 -2 4 -0 -4 1 -3 -6 -3 2 2 -0 -0 1 1 -0 -2 5 -0 -0 -1 1 1 -0 -0 1 -1 -1 1 0 0 -0 -0 -1 1
-3 1 4 6 8 9 6 -8 8 -8 1 6 4 5 -5 -6 -4 -0 2 2 1 5 -1 -2 -2 0 -1 -2 -0 0 1 -0 0 -0 -1 1 1 -0 -1 -1 0 0 -1
1 2 1 1 -0 -1 -1 0 -7 -7 1 1 7 10 5 -4 -3 -2 -1 2 1 7 4 -3 -2 0 0 1 1 1 -2 1 2 0 0 1 0 1 -0 -1 -0 0 -1
-0 1 0 0 1 -1 -0 -3 1 2 -9 -7 2 9 8 3 -2 1 4 3 -1 1 -1 0 -3 -0 1 0 1 -1 -1 -1 -1 1 0 1 0 -1 -1 -1 -0 -0 -1
-4 -3 -2 -2 -1 0 -0 -3 -2 6 -1 -3 3 20 -2 6 -3 -6 6 -0 6 0 1 1 1 0 -0 1 -1 -1 0 -1 -1 -0 0 2 1 0 -1 -1 -1 0 0
-1 1 -1 -2 -4 -3 1 -3 -3 -3 -4 11 8 -2 4 1 -6 -5 6 3 -1 -2 1 1 -0 1 1 0 0 -1 -1 0 0 -1 2 1 1 1 -2 -1 -1 -2 0
-4 -4 -2 -4 -3 -2 -1 -1 -1 1 16 4 -2 5 2 4 -4 -2 -0 1 1 1 -0 11 1 -1 2 2 1 -1 -0 -2 0 1 2 1 1 -1 -1 -1 -1 -1 -0
-3 -4 -3 -1 -1 6 10 10 5 23 25 15 6 0 2 3 1 1 14 20 9 2 -1 3 11 5 1 0 1 1 -0 -1 0 1 1 1 0 -0 -1 -0 -1 -1 -0
-4 -2 -2 -4 -2 -1 -5 -2 -6 -4 -3 0 1 -1 -0 2 1 1 1 -2 1 2 0 4 1 -4 5 9 4 2 -1 -2 -1 3 2 1 0 0 -1 -0 -0 -1 -0
1 -1 -3 -1 -1 -1 -0 -1 -2 -0 -0 -1 -1 1 -1 -1 -0 -1 -1 -2 -3 -2 -1 1 -1 6 4 2 1 4 9 -0 1 -1 3 0 1 0 -1 -0 -0 -1 -1
-1 -2 -2 -3 -3 -3 -1 -1 -1 -0 -1 -0 0 -0 -0 -1 -1 0 1 -1 -1 -1 -1 -2 0 3 -4 0 2 1 3 9 2 1 -0 1 1 0 0 -0 -1 -1 -1
-1 -1 -2 -1 -1 -1 -1 -2 -2 -2 -2 -1 -1 -1 -1 -1 -1 -1 -1 -2 -2 0 -0 1 1 3 0 -0 -2 2 -3 16 -0 -1 2 1 -0 -0 0 -0 -1 -1 -1
Height
1535 1536 1538 1539 1536 1538 1537 1539 1537 1540 1540 1539 1538 1537 1535 1532 1529 1527 1525 1524 1522 1519 1516 1512 1510 1508 1507 1506 1504 1503 1501 1498 1497 1494 1491 1489 1485 1482 1479 1476 1473 1470 1468
1529 1531 1532 1532 1533 1534 1536 1535 1537 1536 1536 1536 1535 1533 1531 1528 1525 1523 1521 1520 1517 1514 1510 1507 1506 1505 1503 1501 1500 1499 1498 1495 1493 1489 1484 1482 1478 1475 1471 1467 1464 1462 1460
1523 1527 1528 1530 1531 1534 1534 1534 1535 1534 1533 1532 1531 1528 1526 1524 1522 1520 1517 1515 1511 1508 1506 1504 1502 1500 1499 1497 1496 1495 1493 1491 1488 1484 1478 1476 1472 1468 1463 1460 1458 1455 1453
1522 1524 1525 1527 1529 1530 1530 1531 1531 1530 1529 1528 1525 1523 1521 1518 1516 1515 1513 1510 1505 1502 1501 1500 1498 1496 1494 1493 1492 1490 1488 1485 1482 1479 1474 1470 1466 1462 1458 1455 1450 1449 1446
1518 1520 1522 1524 1525 1525 1526 1527 1526 1525 1524 1521 1518 1516 1515 1513 1511 1509 1507 1504 1500 1498 1496 1494 1492 1491 1489 1488 1487 1484 1482 1480 1477 1473 1468 1463 1459 1456 1454 1450 1447 1443 1439
1516 1517 1519 1520 1521 1520 1521 1522 1522 1519 1518 1515 1514 1512 1509 1508 1506 1503 1501 1498 1495 1492 1489 1487 1486 1485 1484 1483 1481 1479 1477 1474 1471 1467 1463 1458 1454 1452 1450 1446 1442 1437 1432
1513 1515 1516 1515 1516 1518 1519 1516 1516 1514 1512 1510 1508 1506 1504 1502 1499 1497 1495 1491 1489 1486 1483 1482 1481 1481 1479 1478 1476 1474 1472 1470 1467 1463 1458 1454 1450 1448 1445 1441 1438 1435 1431
1509 1510 1511 1513 1514 1515 1514 1512 1511 1509 1508 1506 1503 1500 1497 1495 1494 1492 1489 1485 1482 1480 1479 1478 1477 1476 1474 1472 1470 1469 1467 1465 1462 1458 1454 1450 1447 1444 1442 1439 1435 1431 1427
1507 1509 1510 1511 1511 1510 1509 1508 1506 1504 1502 1500 1497 1494 1491 1490 1488 1485 1482 1478 1476 1475 1474 1473 1472 1470 1468 1467 1465 1464 1461 1460 1456 1453 1450 1447 1444 1441 1438 1434 1431 1427 1422
1508 1509 1509 1508 1507 1506 1505 1503 1501 1499 1497 1494 1491 1489 1486 1484 1481 1478 1475 1472 1470 1470 1468 1467 1466 1464 1462 1461 1460 1458 1456 1454 1451 1448 1446 1444 1440 1437 1434 1431 1427 1423 1419
1506 1505 1505 1504 1503 1502 1500 1498 1496 1494 1491 1488 1484 1481 1480 1478 1474 1471 1468 1465 1464 1463 1462 1461 1460 1458 1457 1455 1454 1453 1450 1448 1446 1444 1441 1438 1436 1433 1429 1426 1423 1420 1415
1503 1502 1501 1500 1499 1497 1495 1494 1491 1488 1484 1480 1476 1473 1471 1469 1467 1464 1462 1460 1458 1457 1456 1455 1454 1452 1451 1450 1449 1447 1446 1444 1442 1439 1436 1434 1431 1428 1424 1421 1417 1414 1412
1500 1499 1497 1496 1494 1493 1490 1488 1485 1482 1478 1475 1471 1466 1462 1460 1459 1457 1455 1454 1453 1450 1449 1448 1448 1447 1445 1445 1444 1443 1441 1440 1437 1435 1433 1430 1428 1424 1420 1416 1413 1410 1407
1497 1495 1493 1492 1490 1487 1484 1481 1478 1475 1472 1468 1464 1459 1455 1452 1451 1449 1448 1447 1445 1443 1442 1441 1440 1440 1439 1439 1438 1437 1436 1435 1433 1431 1429 1426 1424 1420 1417 1413 1409 1406 1402
1493 1491 1489 1486 1484 1480 1477 1474 1471 1467 1465 1460 1456 1453 1449 1445 1444 1443 1441 1439 1437 1436 1434 1433 1432 1432 1431 1431 1431 1430 1429 1429 1427 1426 1424 1422 1420 1416 1413 1409 1406 1403 1400
1488 1486 1483 1480 1477 1473 1469 1464 1462 1459 1455 1451 1448 1445 1441 1439 1437 1435 1433 1431 1430 1428 1426 1425 1424 1425 1424 1424 1423 1422 1423 1423 1422 1421 1420 1418 1416 1412 1409 1406 1404 1401 1397
1483 1479 1475 1472 1467 1463 1458 1454 1449 1444 1443 1441 1438 1436 1433 1431 1429 1428 1426 1424 1422 1422 1419 1418 1417 1417 1416 1417 1416 1416 1416 1417 1417 1416 1415 1414 1411 1408 1406 1403 1401 1398 1395
1476 1473 1468 1463 1458 1453 1449 1444 1440 1435 1430 1426 1425 1424 1423 1423 1421 1420 1418 1416 1414 1413 1412 1411 1410 1409 1409 1409 1410 1410 1410 1411 1411 1411 1410 1409 1407 1405 1403 1400 1398 1396 1393
1469 1464 1460 1455 1450 1445 1441 1436 1432 1427 1422 1417 1415 1413 1414 1414 1412 1411 1411 1408 1406 1405 1404 1403 1403 1402 1402 1402 1403 1403 1404 1405 1405 1405 1405 1404 1403 1401 1399 1398 1396 1394 1391
1461 1457 1452 1447 1442 1437 1432 1428 1423 1418 1414 1410 1409 1408 1407 1405 1403 1403 1402 1401 1399 1397 1396 1395 1395 1395 1395 1395 1396 1397 1398 1399 1399 1400 1400 1399 1398 1397 1396 1395 1393 1391 1389
1455 1450 1446 1441 1436 1431 1426 1420 1415 1411 1408 1405 1404 1404 1403 1400 1398 1396 1394 1393 1392 1390 1388 1388 1388 1387 1388 1388 1389 1389 1391 1392 1393 1394 1395 1394 1394 1393 1392 1392 1391 1389 1388
1452 1447 1442 1437 1432 1428 1422 1415 1408 1405 1403 1400 1398 1397 1397 1395 1393 1390 1389 1388 1386 1384 1383 1381 1380 1380 1380 1381 1381 1382 1383 1384 1386 1388 1389 1389 1389 1389 1389 1389 1388 1387 1386
1448 1444 1439 1435 1431 1426 1420 1415 1410 1406 1403 1400 1397 1394 1392 1391 1388 1386 1385 1383 1381 1379 1377 1376 1375 1373 1373 1374 1374 1375 1376 1377 1380 1382 1383 1384 1385 1385 1385 1386 1385 1385 1384
1445 1440 1435 1431 1427 1423 1418 1414 1409 1406 1402 1398 1396 1392 1389 1387 1384 1381 1379 1377 1375 1374 1373 1371 1370 1369 1368 1367 1367 1367 1369 1371 1373 1375 1378 1379 1380 1381 1381 1382 1382 1382 1383
1441 1436 1432 1428 1424 1420 1416 1412 1408 1404 1400 1397 1393 1390 1387 1383 1381 1378 1375 1372 1370 1367 1366 1365 1364 1362 1361 1361 1361 1361 1361 1364 1367 1370 1372 1374 1375 1376 1377 1378 1379 1380 1380
1437 1433 1429 1425 1421 1417 1413 1408 1405 1401 1397 1394 1390 1387 1383 1380 1377 1374 1371 1368 1366 1363 1361 1359 1357 1356 1355 1354 1354 1355 1355 1358 1361 1364 1367 1369 1370 1372 1373 1375 1376 1377 1378